• In Uzbekistan
  • List of Countries
  • For 7 days
  • Water Temperature
  • Satellite Maps
  • Weather Map
  • Weather Widgets
  • user-avatar
    Login

    Hourly Weather Hrazdan

    Today, 26 February, Sunday

    Time Temperature Precipitation Wind Pressure Humidity
    00:00 -10°C° 0 mm 2 mps 610 mmHg 93%
    01:00 -10°C° 0 mm 2 mps 610 mmHg 93%
    02:00 -10°C° 0 mm 2 mps 609 mmHg 93%
    03:00 -10°C° 0 mm 2 mps 609 mmHg 95%
    04:00 -10°C° 0 mm 2 mps 609 mmHg 95%
    05:00 -10°C° 0 mm 2 mps 608 mmHg 95%
    06:00 -10°C° 0 mm 2 mps 608 mmHg 95%
    07:00 -8°C° 0 mm 2 mps 609 mmHg 95%
    08:00 -5°C° 0 mm 2 mps 610 mmHg 94%
    09:00 -2°C° 0 mm 2 mps 611 mmHg 94%
    10:00 -1°C° 0 mm 2 mps 612 mmHg 93%
    11:00 +1°C° 0 mm 2 mps 612 mmHg 93%
    12:00 +2°C° 0 mm 2 mps 612 mmHg 93%
    13:00 +3°C° 0 mm 1 mps 612 mmHg 92%
    14:00 +3°C° 0 mm 1 mps 611 mmHg 92%
    15:00 +3°C° 0 mm 1 mps 611 mmHg 91%
    16:00 0°C° 0 mm 1 mps 610 mmHg 93%
    17:00 -2°C° 0 mm 1 mps 609 mmHg 95%
    18:00 -6°C° 0 mm 1 mps 609 mmHg 97%
    19:00 -7°C° 0 mm 1 mps 609 mmHg 96%
    20:00 -7°C° 0 mm 1 mps 609 mmHg 96%
    21:00 -8°C° 0 mm 1 mps 609 mmHg 96%
    22:00 -8°C° 0 mm 1 mps 609 mmHg 95%
    23:00 -8°C° 0 mm 1 mps 610 mmHg 95%

    Tomorrow, 27 February, Monday

    Time Temperature Precipitation Wind Pressure Humidity
    00:00 -8°C° 0 mm 1 mps 610 mmHg 95%
    01:00 -8°C° 0 mm 1 mps 610 mmHg 95%
    02:00 -9°C° 0 mm 0 mps 610 mmHg 96%
    03:00 -9°C° 0 mm 0 mps 610 mmHg 96%
    04:00 -10°C° 0 mm 0 mps 609 mmHg 96%
    05:00 -10°C° 0 mm 0 mps 609 mmHg 97%
    06:00 -11°C° 0 mm 0 mps 609 mmHg 97%
    07:00 -8°C° 0 mm 0 mps 611 mmHg 95%
    08:00 -5°C° 0 mm 0 mps 612 mmHg 93%
    09:00 -2°C° 0 mm 0 mps 614 mmHg 91%
    10:00 0°C° 0 mm 1 mps 614 mmHg 91%
    11:00 +1°C° 0 mm 1 mps 614 mmHg 90%
    12:00 +2°C° 0 mm 1 mps 614 mmHg 90%
    13:00 +2°C° 0 mm 1 mps 613 mmHg 90%
    14:00 +2°C° 0 mm 1 mps 613 mmHg 90%
    15:00 +2°C° 0 mm 1 mps 613 mmHg 90%
    16:00 0°C° 0 mm 1 mps 612 mmHg 93%
    17:00 -2°C° 0 mm 1 mps 611 mmHg 95%
    18:00 -4°C° 0 mm 1 mps 610 mmHg 97%
    19:00 -6°C° 0 mm 1 mps 610 mmHg 97%
    20:00 -7°C° 0 mm 1 mps 610 mmHg 96%
    21:00 -7°C° 0 mm 1 mps 610 mmHg 95%
    22:00 -8°C° 0 mm 1 mps 610 mmHg 94%
    23:00 -8°C° 0 mm 1 mps 609 mmHg 93%

    Day after tomorrow, 28 February, Tuesday

    Time Temperature Precipitation Wind Pressure Humidity
    00:00 -8°C° 0 mm 1 mps 609 mmHg 92%
    01:00 -8°C° 0 mm 1 mps 609 mmHg 92%
    02:00 -8°C° 0 mm 1 mps 609 mmHg 92%
    03:00 -8°C° 0 mm 1 mps 609 mmHg 92%
    04:00 -8°C° 0 mm 1 mps 609 mmHg 92%
    05:00 -8°C° 0 mm 1 mps 609 mmHg 92%
    06:00 -8°C° 0 mm 1 mps 609 mmHg 92%
    07:00 -6°C° 0 mm 1 mps 611 mmHg 90%
    08:00 -2°C° 0 mm 1 mps 612 mmHg 88%
    09:00 +1°C° 0 mm 1 mps 613 mmHg 86%
    10:00 +2°C° 0 mm 1 mps 614 mmHg 84%
    11:00 +3°C° 0 mm 1 mps 614 mmHg 83%
    12:00 +4°C° 0 mm 1 mps 614 mmHg 82%
    13:00 +4°C° 0 mm 1 mps 614 mmHg 82%
    14:00 +4°C° 0 mm 1 mps 613 mmHg 83%
    15:00 +4°C° 0 mm 1 mps 613 mmHg 83%
    16:00 +1°C° 0 mm 1 mps 612 mmHg 87%
    17:00 -1°C° 0 mm 1 mps 611 mmHg 92%
    18:00 -4°C° 0 mm 1 mps 610 mmHg 96%
    19:00 -4°C° 0 mm 1 mps 611 mmHg 95%
    20:00 -4°C° 0 mm 1 mps 611 mmHg 94%
    21:00 -6°C° 0 mm 1 mps 611 mmHg 93%
    22:00 -6°C° 0 mm 1 mps 611 mmHg 92%
    23:00 -7°C° 0 mm 1 mps 611 mmHg 91%

    1 March, Wednesday

    Time Temperature Precipitation Wind Pressure Humidity
    00:00 -7°C° 0 mm 1 mps 611 mmHg 90%
    01:00 -8°C° 0 mm 1 mps 611 mmHg 88%
    02:00 -8°C° 0 mm 1 mps 611 mmHg 87%
    03:00 -8°C° 0 mm 1 mps 611 mmHg 86%
    04:00 -8°C° 0 mm 1 mps 611 mmHg 85%
    05:00 -8°C° 0 mm 1 mps 611 mmHg 85%
    06:00 -8°C° 0 mm 1 mps 611 mmHg 84%
    07:00 -4°C° 0 mm 1 mps 612 mmHg 82%
    08:00 -1°C° 0 mm 1 mps 613 mmHg 80%
    09:00 +1°C° 0 mm 1 mps 615 mmHg 78%
    10:00 +3°C° 0 mm 1 mps 615 mmHg 77%
    11:00 +4°C° 0 mm 1 mps 615 mmHg 76%
    12:00 +5°C° 0 mm 1 mps 615 mmHg 75%
    13:00 +5°C° 0 mm 1 mps 615 mmHg 76%
    14:00 +5°C° 0 mm 1 mps 614 mmHg 78%
    15:00 +5°C° 0 mm 1 mps 614 mmHg 80%
    16:00 +3°C° 0 mm 1 mps 613 mmHg 85%
    17:00 0°C° 0 mm 1 mps 612 mmHg 90%
    18:00 -2°C° 0 mm 1 mps 611 mmHg 95%
    19:00 -3°C° 0 mm 1 mps 611 mmHg 93%
    20:00 -3°C° 0 mm 1 mps 611 mmHg 92%
    21:00 -3°C° 0 mm 1 mps 611 mmHg 91%
    22:00 -3°C° 0 mm 1 mps 611 mmHg 89%
    23:00 -4°C° 0 mm 1 mps 611 mmHg 87%

    2 March, Thursday

    Time Temperature Precipitation Wind Pressure Humidity
    00:00 -5°C° 0 mm 0 mps 610 mmHg 85%
    01:00 -5°C° 0 mm 0 mps 610 mmHg 84%
    02:00 -4°C° 0 mm 1 mps 610 mmHg 84%
    03:00 -6°C° 0 mm 1 mps 609 mmHg 83%
    04:00 -4°C° 0 mm 1 mps 609 mmHg 83%
    05:00 -4°C° 0 mm 1 mps 609 mmHg 84%
    06:00 -4°C° 0 mm 1 mps 609 mmHg 84%
    07:00 -2°C° 0 mm 1 mps 610 mmHg 81%
    08:00 0°C° 0 mm 1 mps 611 mmHg 79%
    09:00 +1°C° 0 mm 0 mps 611 mmHg 77%
    10:00 +4°C° 0 mm 1 mps 611 mmHg 75%
    11:00 +5°C° 0 mm 1 mps 611 mmHg 73%
    12:00 +6°C° 0 mm 1 mps 610 mmHg 71%
    13:00 +6°C° 0 mm 1 mps 610 mmHg 73%
    14:00 +6°C° 0 mm 1 mps 610 mmHg 76%
    15:00 +6°C° 0 mm 1 mps 609 mmHg 78%
    16:00 +4°C° 0 mm 1 mps 609 mmHg 83%
    17:00 +2°C° 0 mm 1 mps 608 mmHg 89%
    18:00 +1°C° 0 mm 1 mps 607 mmHg 94%
    19:00 +1°C° 0.1 mm 1 mps 608 mmHg 93%
    20:00 0°C° 0.1 mm 1 mps 608 mmHg 92%
    21:00 0°C° 0.1 mm 1 mps 608 mmHg 91%
    22:00 -1°C° 0.2 mm 0 mps 608 mmHg 91%
    23:00 -1°C° 0.2 mm 0 mps 608 mmHg 91%

    3 March, Friday

    Time Temperature Precipitation Wind Pressure Humidity
    00:00 -1°C° 0.2 mm 0 mps 608 mmHg 91%
    01:00 -1°C° 0.2 mm 0 mps 607 mmHg 92%
    02:00 -1°C° 0.2 mm 0 mps 607 mmHg 92%
    03:00 -2°C° 0.2 mm 0 mps 607 mmHg 92%
    04:00 -2°C° 0.1 mm 0 mps 607 mmHg 91%
    05:00 -2°C° 0.1 mm 0 mps 607 mmHg 91%
    06:00 -2°C° 0.1 mm 0 mps 607 mmHg 91%
    07:00 -1°C° 0.1 mm 0 mps 607 mmHg 88%
    08:00 0°C° 0.1 mm 0 mps 608 mmHg 85%
    09:00 +1°C° 0.1 mm 0 mps 608 mmHg 82%
    10:00 +3°C° 0.1 mm 1 mps 608 mmHg 79%
    11:00 +4°C° 0.1 mm 1 mps 608 mmHg 77%
    12:00 +5°C° 0.1 mm 1 mps 608 mmHg 75%
    13:00 +5°C° 0.1 mm 1 mps 608 mmHg 77%
    14:00 +5°C° 0.1 mm 1 mps 608 mmHg 79%
    15:00 +5°C° 0.1 mm 1 mps 608 mmHg 82%
    16:00 +3°C° 0.1 mm 1 mps 607 mmHg 86%
    17:00 +2°C° 0.1 mm 1 mps 607 mmHg 91%
    18:00 0°C° 0.1 mm 0 mps 607 mmHg 96%
    19:00 0°C° 0.2 mm 0 mps 607 mmHg 96%
    20:00 0°C° 0.2 mm 0 mps 607 mmHg 96%
    21:00 0°C° 0.2 mm 0 mps 608 mmHg 96%
    22:00 -1°C° 0.2 mm 0 mps 608 mmHg 95%
    23:00 -1°C° 0.2 mm 0 mps 608 mmHg 95%
    Show more